Location: Emblem
(62.4273°N, 6.4710°E)
Time: 09:36:02
(UTC+01:00)

Transit 2A Rocket - Visible Passes

Search period start: 26 February 2024 00:00
Search period end: 07 March 2024 00:00
Orbit: 591 x 904 km, 66.7° (Epoch: 25 February)

Date Brightness Start Highest point End Pass type
(mag) Time Alt. Az. Time Alt. Az. Time Alt. Az.
26 Feb 5.8 03:20:42 40° ENE 03:20:42 40° ENE 03:23:48 10° ENE visible
26 Feb 5.0 05:00:30 40° WNW 05:01:50 55° NNW 05:06:34 10° ENE visible
26 Feb 5.2 06:40:23 10° WNW 06:44:53 55° NNE 06:49:47 10° E visible
27 Feb 6.6 02:37:55 25° ENE 02:37:55 25° ENE 02:39:58 10° ENE visible
27 Feb 4.7 04:17:43 62° NW 04:17:55 63° NNW 04:22:40 10° ENE visible
27 Feb 5.3 05:57:31 17° WNW 06:00:56 51° N 06:05:46 10° E visible
28 Feb 7.2 01:55:07 15° ENE 01:55:07 15° ENE 01:56:05 10° ENE visible
28 Feb 5.2 03:34:55 57° NE 03:34:55 57° NE 03:38:48 10° ENE visible
28 Feb 5.3 05:14:43 27° WNW 05:16:58 51° N 05:21:45 10° ENE visible
28 Feb 5.1 06:55:20 10° WNW 06:59:58 67° NNE 07:05:02 10° ESE visible
29 Feb 6.0 02:52:06 36° ENE 02:52:06 36° ENE 02:54:57 10° ENE visible
29 Feb 5.1 04:31:54 42° NW 04:33:00 53° N 04:37:46 10° ENE visible
29 Feb 5.2 06:11:42 11° WNW 06:16:03 58° NNE 06:21:02 10° E visible
01 Mar 6.7 02:09:17 23° ENE 02:09:17 23° ENE 02:11:06 10° ENE visible
01 Mar 5.0 03:49:06 59° NNW 03:49:06 59° NNW 03:53:51 10° ENE visible
01 Mar 5.3 05:28:53 19° WNW 05:32:06 53° N 05:37:01 10° E visible
02 Mar 7.3 01:26:27 14° ENE 01:26:27 14° ENE 01:27:14 10° ENE visible
02 Mar 5.5 03:06:15 49° NE 03:06:15 49° NE 03:09:57 10° ENE visible
02 Mar 5.3 04:46:03 29° WNW 04:48:09 51° N 04:52:59 10° ENE visible
02 Mar 5.0 06:26:24 10° WNW 06:31:06 73° NNE 06:36:16 10° ESE visible
03 Mar 6.2 02:23:25 33° ENE 02:23:25 33° ENE 02:26:06 10° ENE visible
03 Mar 5.2 04:03:13 44° NW 04:04:10 52° N 04:08:59 10° ENE visible
03 Mar 5.2 05:43:01 13° WNW 05:47:13 62° NNE 05:52:17 10° E visible
04 Mar 6.8 01:40:35 21° ENE 01:40:35 21° ENE 01:42:14 10° ENE visible
04 Mar 5.2 03:20:22 55° N 03:20:22 55° N 03:25:02 10° ENE visible
04 Mar 5.3 05:00:10 20° WNW 05:03:16 55° NNE 05:08:15 10° E visible
04 Mar 4.9 06:41:16 10° WNW 06:46:03 83° SW 06:51:18 10° SE visible
05 Mar 7.3 00:57:43 14° ENE 00:57:43 14° ENE 00:58:23 10° ENE visible
05 Mar 5.7 02:37:31 45° NE 02:37:31 45° NE 02:41:07 10° ENE visible
05 Mar 5.4 04:17:19 30° NW 04:19:18 52° N 04:24:13 10° E visible
05 Mar 4.9 05:57:28 10° WNW 06:02:14 80° NNE 06:07:27 10° ESE visible
06 Mar 6.3 01:54:38 31° NE 01:54:38 31° NE 01:57:13 10° ENE visible
06 Mar 5.3 03:34:26 44° NW 03:35:20 51° N 03:40:12 10° ENE visible
06 Mar 5.1 05:14:14 14° WNW 05:18:21 67° NNE 05:23:30 10° ESE visible
